DW6276 Weather Reports


Display with metric or nautical units.
time (UTC)temp
F
wind
direction
speed
MPH
gust
MPH
rain 1hr
in
rain 24hr
in
rain mn
in
humidity
%
barometer
mb
20260904221516 87 0 4.0 6.0 0.00 0.00 0.00 73 1012.5
20260904220516 86 45 5.0 8.0 0.00 0.00 0.00 74 1012.5
20260904215516 87 23 4.0 7.0 0.00 0.00 0.00 75 1012.4
20260904214516 87 23 5.0 8.0 0.00 0.00 0.00 74 1012.4
20260904213516 87 0 4.0 8.0 0.00 0.00 0.00 76 1012.4
20260904212516 87 0 4.0 7.0 0.00 0.00 0.00 75 1012.4
20260904211516 87 45 4.0 8.0 0.00 0.00 0.00 75 1012.4
20260904210556 87 45 5.0 7.0 0.00 0.00 0.00 76 1012.3
20260904205516 87 0 4.0 6.0 0.00 0.00 0.00 78 1012.4
20260904204516 86 23 4.0 8.0 0.00 0.00 0.00 78 1012.4
20260904203516 86 23 4.0 8.0 0.00 0.00 0.00 76 1012.5
20260904202516 85 23 6.0 10.0 0.00 0.00 0.00 77 1012.4
20260904201516 86 45 4.0 7.0 0.00 0.00 0.00 77 1012.3
20260904200516 85 45 6.0 9.0 0.00 0.00 0.00 78 1012.4
20260904195516 85 45 5.0 8.0 0.00 0.00 0.00 80 1012.4
20260904194516 85 45 7.0 11.0 0.00 0.00 0.00 80 1012.3
20260904193516 84 45 6.0 10.0 0.00 0.00 0.00 79 1012.2
20260904192516 85 23 7.0 11.0 0.00 0.00 0.00 79 1012.3
20260904191536 85 23 6.0 9.0 0.00 0.00 0.00 80 1012.3
20260904190516 86 23 5.0 9.0 0.00 0.00 0.00 79 1012.3
20260904185516 86 45 6.0 9.0 0.00 0.00 0.00 79 1012.3
20260904184516 86 23 6.0 9.0 0.00 0.00 0.00 77 1012.4
20260904183536 87 45 6.0 11.0 0.00 0.00 0.00 76 1012.3
20260904182516 87 0 4.0 8.0 0.00 0.00 0.00 75 1012.3
20260904181516 88 23 4.0 8.0 0.00 0.00 0.00 75 1012.3
20260904180516 87 0 5.0 9.0 0.00 0.00 0.00 76 1012.2
20260904175516 88 45 5.0 10.0 0.00 0.00 0.00 75 1012.1
20260904174516 88 45 4.0 8.0 0.00 0.00 0.00 75 1012.1
20260904173516 88 0 4.0 7.0 0.00 0.00 0.00 74 1012.2
20260904172516 88 45 3.0 6.0 0.00 0.00 0.00 74 1012.2
20260904171516 87 23 3.0 7.0 0.00 0.00 0.00 75 1012.1
20260904170516 87 68 3.0 7.0 0.00 0.00 0.00 76 1012.0
20260904165515 87 338 3.0 8.0 0.00 0.00 0.00 75 1012.0
20260904164516 86 68 3.0 5.0 0.00 0.00 0.00 76 1011.8
20260904163535 86 45 2.0 5.0 0.00 0.00 0.00 76 1011.8
20260904162515 86 45 2.0 6.0 0.00 0.00 0.00 77 1011.6
20260904161516 85 23 2.0 4.0 0.00 0.00 0.00 76 1011.6
20260904160516 85 270 1.0 3.0 0.00 0.00 0.00 77 1011.5
20260904155515 85 90 1.0 3.0 0.00 0.00 0.00 77 1011.5
20260904154515 85 68 1.0 3.0 0.00 0.00 0.00 77 1011.5
20260904153515 84 338 1.0 2.0 0.00 0.01 0.00 80 1011.4
20260904152516 83 315 1.0 3.0 0.00 0.01 0.00 82 1011.5
20260904151516 82 338 2.0 4.0 0.00 0.01 0.00 81 1011.4
20260904150515 82 0 2.0 3.0 0.00 0.01 0.00 81 1011.3
20260904145515 81 0 1.0 2.0 0.00 0.01 0.00 83 1011.3
20260904144515 80 315 2.0 4.0 0.00 0.01 0.00 83 1011.2
20260904143516 80 293 2.0 4.0 0.00 0.01 0.00 83 1011.2
20260904142515 80 248 2.0 3.0 0.00 0.01 0.00 84 1011.2
20260904141516 79 203 1.0 3.0 0.00 0.01 0.00 85 1011.2
20260904140515 79 248 2.0 3.0 0.00 0.01 0.00 85 1011.2
20260904135515 78 225 2.0 4.0 0.00 0.01 0.00 86 1011.0
20260904134515 77 225 2.0 4.0 0.00 0.01 0.00 87 1011.0
20260904133535 77 225 1.0 4.0 0.00 0.01 0.00 88 1011.1
20260904132515 76 203 2.0 3.0 0.00 0.01 0.00 89 1010.9
20260904131535 76 203 1.0 2.0 0.00 0.01 0.00 89 1010.9
20260904130515 75 0.0 2.0 0.00 0.01 0.00 89 1011.1
20260904125515 74 0.0 0.0 0.00 0.01 0.00 91 1010.8
20260904124515 73 0.0 0.0 0.00 0.01 0.00 92 1010.7
20260904123515 72 0.0 2.0 0.00 0.01 0.00 92 1010.7
20260904122515 71 0.0 2.0 0.00 0.01 0.00 92 1010.5
20260904121537 71 0.0 2.0 0.00 0.01 0.00 92 1010.5
20260904120517 70 0.0 1.0 0.00 0.01 0.00 92 1010.3
20260904115517 70 0.0 1.0 0.00 0.01 0.00 92 1010.2
20260904114537 70 0.0 2.0 0.00 0.01 0.00 91 1010.1
20260904113537 71 0.0 2.0 0.00 0.02 0.00 91 1010.2
20260904112517 71 0.0 1.0 0.00 0.02 0.00 91 1010.2
20260904111517 71 0.0 1.0 0.00 0.03 0.00 91 1010.1
20260904110517 71 0.0 2.0 0.00 0.10 0.00 91 1010.1
20260904105517 71 0.0 2.0 0.00 0.13 0.00 91 1010.0
20260904104517 72 0.0 2.0 0.00 0.15 0.00 91 1010.0
20260904103517 72 0.0 2.0 0.00 0.16 0.00 91 1009.9
20260904102517 72 225 1.0 2.0 0.00 0.16 0.00 91 1010.0
20260904101517 72 0.0 2.0 0.00 0.16 0.00 90 1009.9
20260904100537 73 225 1.0 2.0 0.00 0.16 0.00 90 1009.8
20260904095517 73 0.0 0.0 0.00 0.23 0.00 89 1010.0
20260904094517 73 0.0 0.0 0.00 0.29 0.00 89 1009.7
20260904093517 74 0.0 2.0 0.00 0.29 0.00 89 1009.6
20260904092537 74 0.0 2.0 0.00 0.29 0.00 89 1009.6
20260904091557 75 0.0 1.0 0.00 0.29 0.00 88 1009.6
20260904090517 75 0.0 2.0 0.00 0.29 0.00 88 1009.4
20260904085517 75 0.0 2.0 0.00 0.29 0.00 89 1009.4
20260904084517 75 0 1.0 2.0 0.00 0.29 0.00 89 1009.4
20260904083517 75 0 1.0 2.0 0.00 0.29 0.00 89 1009.3
20260904082517 76 0.0 1.0 0.00 0.29 0.00 89 1009.3
20260904081517 76 0 1.0 2.0 0.00 0.29 0.00 89 1009.4
20260904080517 76 225 1.0 3.0 0.00 0.29 0.00 89 1009.4
20260904075517 76 0 2.0 4.0 0.00 0.29 0.00 89 1009.4
20260904074517 76 0 2.0 3.0 0.00 0.29 0.00 89 1009.4
20260904073516 76 203 1.0 2.0 0.00 0.29 0.00 89 1009.4
20260904072517 76 203 1.0 2.0 0.00 0.29 0.00 90 1009.5
20260904071516 76 0.0 1.0 0.00 0.29 0.00 90 1009.5
20260904070517 76 203 1.0 2.0 0.00 0.29 0.00 90 1009.3
20260904065516 75 203 2.0 3.0 0.00 0.29 0.00 91 1009.4
20260904064517 75 203 2.0 3.0 0.00 0.29 0.00 91 1009.4
20260904063516 75 203 1.0 2.0 0.00 0.29 0.00 91 1009.5
20260904062616 75 180 1.0 3.0 0.00 0.29 0.00 91 1009.5
20260904061516 75 0.0 1.0 0.00 0.29 0.00 91 1009.5
20260904060517 75 0.0 2.0 0.00 0.29 0.00 90 1009.5
20260904055517 75 180 1.0 2.0 0.00 0.29 0.00 90 1009.4
20260904054516 75 180 1.0 2.0 0.00 0.29 0.00 90 1009.4
20260904053516 75 180 1.0 2.0 0.00 0.29 0.00 90 1009.3
20260904052516 75 180 1.0 2.0 0.00 0.29 0.00 90 1009.3
20260904051536 75 0.0 1.0 0.00 0.29 0.00 90 1009.2
20260904050516 75 0.0 2.0 0.00 0.29 0.00 90 1009.2
20260904045517 76 0 1.0 1.0 0.00 0.29 0.29 89 1009.2
20260904044517 76 180 1.0 1.0 0.00 0.29 0.29 89 1009.2
20260904043517 77 0 1.0 1.0 0.00 0.29 0.29 89 1009.1
20260904042517 77 0 1.0 2.0 0.00 0.29 0.29 89 1009.2
20260904041517 77 0.0 2.0 0.00 0.29 0.29 88 1009.1
20260904040517 77 0.0 2.0 0.00 0.29 0.29 88 1009.0
20260904035517 77 0.0 2.0 0.00 0.29 0.29 88 1009.0
20260904034517 78 180 1.0 3.0 0.00 0.29 0.29 88 1009.0
20260904033517 78 180 2.0 2.0 0.00 0.29 0.29 87 1009.1
20260904032537 78 180 2.0 3.0 0.00 0.29 0.29 87 1009.1
20260904031517 78 180 2.0 3.0 0.00 0.29 0.29 86 1009.1
20260904030517 79 180 2.0 3.0 0.00 0.29 0.29 86 1008.9
20260904025517 79 203 2.0 5.0 0.00 0.29 0.29 86 1009.0
20260904024517 79 180 2.0 4.0 0.00 0.29 0.29 85 1008.9
20260904023517 79 180 1.0 3.0 0.00 0.29 0.29 84 1008.9
20260904022517 79 180 1.0 3.0 0.00 0.29 0.29 84 1009.0
20260904021517 79 180 3.0 6.0 0.00 0.29 0.29 84 1008.8
20260904020517 79 158 3.0 5.0 0.00 0.29 0.29 84 1008.7
20260904015517 79 180 2.0 5.0 0.00 0.29 0.29 84 1008.6
20260904014517 79 158 2.0 4.0 0.00 0.29 0.29 84 1008.5
20260904013517 79 158 2.0 4.0 0.00 0.29 0.29 84 1008.2
20260904012517 79 180 2.0 3.0 0.00 0.29 0.29 84 1007.9
20260904011517 79 180 1.0 3.0 0.00 0.29 0.29 84 1008.1
20260904010517 79 0.0 1.0 0.00 0.29 0.29 83 1008.1
20260904005517 80 0.0 1.0 0.00 0.29 0.29 82 1008.0
20260904004517 81 0.0 2.0 0.00 0.29 0.29 81 1008.1
20260904003517 82 0.0 1.0 0.00 0.29 0.29 79 1008.0
20260904002536 83 180 1.0 2.0 0.00 0.29 0.29 77 1008.1
20260904001517 83 180 2.0 3.0 0.00 0.29 0.29 75 1008.1
20260904000516 84 180 3.0 5.0 0.00 0.29 0.29 74 1008.0
20260903235516 85 0 5.0 8.0 0.00 0.29 0.29 72 1008.1
20260903234516 85 0 5.0 12.0 0.00 0.29 0.29 71 1008.1
20260903233516 85 0 4.0 7.0 0.00 0.29 0.29 72 1008.1
20260903232516 86 0 5.0 9.0 0.00 0.29 0.29 70 1008.3
20260903231517 86 0 5.0 11.0 0.00 0.29 0.29 70 1008.4
20260903230516 86 0 5.0 8.0 0.00 0.29 0.29 70 1008.2
20260903225517 86 0 6.0 10.0 0.00 0.29 0.29 70 1008.1
20260903224516 87 0 6.0 10.0 0.00 0.29 0.29 69 1007.9
20260903223516 87 0 5.0 8.0 0.00 0.29 0.29 69 1007.7
20260903222516 86 158 5.0 9.0 0.00 0.29 0.29 69 1007.2